Winnemucca, NV

12:55 AM PDT on April 27, 2017 (GMT -0700)
Winnemucca Municipal

Weather History for KWMC - March, 2014

Change the Weather History Date:

Monday, March 3, 2014

  Actual Average Record
Temperature  
Mean Temperature 46 °F 39 °F  
Max Temperature 55 °F 53 °F 72 °F (1921)
Min Temperature 36 °F 25 °F 2 °F (1964)
Degree Days  
Heating Degree Days 19 26  
Month to date heating degree days 61 79  
Since 1 July heating degree days 4720 4668  
Cooling Degree Days 0 0  
Month to date cooling degree days 0 0  
Year to date cooling degree days 0 0  
Moisture  
Dew Point 34 °F    
Average Humidity 69    
Maximum Humidity 96    
Minimum Humidity 41    
Precipitation  
Precipitation 0.03 in 0.03 in 0.35 in (1983)
Month to date precipitation 0.05 0.08  
Year to date precipitation 1.66 1.61  
Snow  
Snow 0.00 in 0.10 in 5.20 in (1974)
Month to date snowfall 0.0 0.3  
Since 1 July snowfall 21.5 16.3  
Snow Depth 0.00 in    
Sea Level Pressure  
Sea Level Pressure 30.01 in    
Wind  
Wind Speed 10 mph (SSW)    
Max Wind Speed 18 mph    
Max Gust Speed 22 mph    
Visibility 10 miles    
Events Rain    
T = Trace of Precipitation, MM = Missing Value Source: NWS Daily Summary

Daily Weather History Graph

Daily Weather History Graph

Search for Another Location

Airport or City:

Trip Planner

Search our weather history database for the weather conditions in past years. The results will help you decide how hot, cold, wet, or windy it might be!

Date:

Astronomy

Mar. 03, 2014 Rise Set
Actual Time 6:22 AM PST 5:44 PM PST
Civil Twilight 5:54 AM PST 6:12 PM PST
Nautical Twilight 5:22 AM PST 6:44 PM PST
Astronomical Twilight 4:51 AM PST 7:15 PM PST
Moon 7:31 AM PST (3/3) 8:54 PM PST (3/3)
Length of Visible Light 12h 17m
Length of Day
11h 22m
Waxing Crescent, 8% of the Moon is Illuminated
Mar 3
Waxing Crescent
Mar 8
First Quarter
Mar 16
Full
Mar 23
Last Quarter
Mar 30
New

Hourly Weather History & Observations

Time (PST) Temp. Windchill Dew Point Humidity Pressure Visibility Wind Dir Wind Speed Gust Speed Precip Events Conditions
12:56 AM 41.0 °F 35.8 °F 32.0 °F 70% 30.02 in 10.0 mi SSE 8.1 mph - N/A   Clear
1:56 AM 41.0 °F 35.2 °F 32.0 °F 70% 30.02 in 10.0 mi South 9.2 mph - N/A   Clear
2:56 AM 39.9 °F 34.5 °F 32.0 °F 73% 30.04 in 10.0 mi SSE 8.1 mph - N/A   Clear
3:56 AM 39.9 °F 35.8 °F 32.0 °F 73% 30.04 in 10.0 mi South 5.8 mph - N/A   Partly Cloudy
4:56 AM 37.9 °F 33.5 °F 30.9 °F 76% 30.02 in 10.0 mi South 5.8 mph - N/A   Clear
5:56 AM 37.0 °F 29.8 °F 30.9 °F 79% 30.03 in 10.0 mi South 10.4 mph - N/A   Clear
6:56 AM 37.9 °F 31.5 °F 32.0 °F 79% 30.05 in 10.0 mi South 9.2 mph - N/A   Scattered Clouds
7:56 AM 41.0 °F 35.8 °F 34.0 °F 76% 30.05 in 10.0 mi South 8.1 mph - N/A   Partly Cloudy
8:56 AM 46.9 °F - 34.0 °F 61% 30.04 in 10.0 mi South 15.0 mph - N/A   Scattered Clouds
9:56 AM 50.0 °F - 34.0 °F 54% 30.05 in 10.0 mi South 10.4 mph - N/A   Mostly Cloudy
10:56 AM 50.0 °F - 32.0 °F 50% 30.04 in 10.0 mi SSE 11.5 mph - N/A   Overcast
11:56 AM 53.1 °F - 30.0 °F 41% 30.01 in 10.0 mi SSE 9.2 mph - N/A   Overcast
12:56 PM 53.1 °F - 30.0 °F 41% 29.98 in 10.0 mi South 9.2 mph - N/A   Overcast
1:56 PM 54.0 °F - 30.9 °F 41% 29.98 in 10.0 mi SW 13.8 mph - N/A   Overcast
2:56 PM 53.1 °F - 32.0 °F 45% 29.97 in 10.0 mi WSW 12.7 mph - N/A   Overcast
3:56 PM 53.1 °F - 32.0 °F 45% 29.97 in 10.0 mi WSW 15.0 mph - N/A   Overcast
4:56 PM 51.1 °F - 35.1 °F 54% 29.99 in 10.0 mi SW 9.2 mph - N/A   Overcast
5:56 PM 50.0 °F - 35.1 °F 57% 29.99 in 10.0 mi WSW 5.8 mph - N/A   Overcast
6:56 PM 48.9 °F - 36.0 °F 61% 29.98 in 10.0 mi WSW 11.5 mph - N/A   Partly Cloudy
7:56 PM 48.0 °F - 37.9 °F 68% 29.97 in 10.0 mi West 4.6 mph - 0.00 in Rain Light Rain
8:56 PM 48.0 °F - 39.0 °F 71% 29.96 in 10.0 mi SW 11.5 mph - 0.00 in   Overcast
9:56 PM 45.0 °F 39.7 °F 42.1 °F 90% 29.97 in 10.0 mi WSW 10.4 mph - 0.00 in Rain Light Rain
10:56 PM 43.0 °F 37.2 °F 41.0 °F 93% 29.98 in 10.0 mi WSW 10.4 mph - 0.01 in Rain Light Rain
11:16 PM 43.0 °F 37.7 °F 41.0 °F 93% 30.01 in 10.0 mi SW 9.2 mph - 0.01 in Rain Light Rain
11:56 PM 43.0 °F 38.2 °F 41.0 °F 93% 29.98 in 9.0 mi SW 8.1 mph - 0.02 in Rain Light Rain